Location: Drawsko Pomorskie
(53.5317°N, 15.8111°E)
Time: 08:28:56
(UTC+01:00)

Envisat - Pass Details

Date: 22 October 2019
Orbit: 764 x 766 km, 98.1° (Epoch: 17 November)

Event Time Altitude Azimuth Distance (km) Brightness Sun altitude
Rises 18:17:15 0° 150° (SSE) 3,225 6.0 -5.4°
Reaches altitude 10° 18:19:34 10° 147° (SSE) 2,302 5.3 -5.7°
Maximum altitude 18:24:33 59° 69° (ENE) 886 3.1 -6.5°
Drops below altitude 10° 18:29:33 10° 351° (N) 2,317 5.5 -7.2°
Sets 18:31:54 0° 348° (NNW) 3,248 6.3 -7.5°
